Change the Weather History Date:

Thursday, October 11, 2012

  Actual Average Record
Temperature  
Mean Temperature 56 °F -  
Max Temperature 64 °F 59 °F - ()
Min Temperature 46 °F 36 °F - ()
Degree Days  
Heating Degree Days 9    
Growing Degree Days 6 (Base 50)    
Moisture  
Dew Point 46 °F    
Average Humidity 85    
Maximum Humidity 94    
Minimum Humidity 59    
Precipitation  
Precipitation 0.12 in 0.05 in - ()
Sea Level Pressure  
Sea Level Pressure 29.93 in    
Wind  
Wind Speed 11 mph ()    
Max Wind Speed 29 mph    
Max Gust Speed -    
Visibility 6.2 miles    
Events Rain    
T = Trace of Precipitation, MM = Missing Value Source: Averaged Metar Reports

Daily Weather History Graph

Daily Weather History Graph

Search for Another Location

Airport or City:

Trip Planner

Search our weather history database for the weather conditions in past years. The results will help you decide how hot, cold, wet, or windy it might be!

Date:

Astronomy

Oct. 11, 2012 Rise Set
Actual Time 6:38 AM EEST 5:58 PM EEST
Civil Twilight 6:11 AM EEST 6:25 PM EEST
Nautical Twilight 5:40 AM EEST 6:57 PM EEST
Astronomical Twilight 5:09 AM EEST 7:28 PM EEST
Moon 1:55 AM EEST (10/11) 3:23 PM EEST (10/11)
Length of Visible Light 12h 14m
Length of Day
11h 20m
Waning Crescent, 21% of the Moon is Illuminated
Oct 11
Waning Crescent
Oct 15
New
Oct 22
First Quarter
Oct 29
Full
Nov 7
Last Quarter

Hourly Weather History & Observations

Time (EEST) Temp. Windchill Dew Point Humidity Pressure Visibility Wind Dir Wind Speed Gust Speed Precip Events Conditions
12:50 AM 50.0 °F - 46.4 °F 87% 30.04 in 6.2 mi ESE 9.2 mph - N/A   Mostly Cloudy
1:50 AM 50.0 °F - 46.4 °F 87% 30.04 in 6.2 mi ESE 10.4 mph - N/A   Mostly Cloudy
2:50 AM 50.0 °F - 46.4 °F 87% 30.01 in 6.2 mi ESE 9.2 mph - N/A Rain Light Rain Showers
3:00 AM 53 °F - 49 °F 81%  in 6 mi Calm Calm - - Rain Light Rain Showers
3:50 AM 48.2 °F - 46.4 °F 93% 29.98 in 6.2 mi East 8.1 mph - N/A   Mostly Cloudy
4:50 AM 48.2 °F - 46.4 °F 93% 29.95 in 6.2 mi East 11.5 mph - N/A Rain Light Rain Showers
7:50 AM 50.0 °F - 48.2 °F 94% 29.95 in 6.2 mi SSE 16.1 mph - N/A Rain Light Rain Showers
8:50 AM 50.0 °F - 48.2 °F 94% 29.92 in 5.0 mi SE 9.2 mph - N/A Rain Light Rain Showers
9:50 AM 50.0 °F - 48.2 °F 94% 29.92 in 6.2 mi SSE 11.5 mph - N/A Rain Light Rain Showers
10:50 AM 51.8 °F - 48.2 °F 88% 29.92 in 6.2 mi SSE 16.1 mph - N/A   Mostly Cloudy
11:50 AM 55.4 °F - 46.4 °F 72% 29.89 in 6.2 mi SSE 26.5 mph - N/A   Mostly Cloudy
12:50 PM 57.2 °F - 46.4 °F 67% 29.89 in 6.2 mi South 28.8 mph - N/A   Mostly Cloudy
1:50 PM 55.4 °F - 46.4 °F 72% 29.89 in 6.2 mi South 25.3 mph - N/A   Mostly Cloudy
2:50 PM 50.0 °F - 46.4 °F 87% 29.89 in 6.2 mi SW 16.1 mph - N/A Rain Light Rain Showers
3:00 PM 58 °F - 48 °F 59%  in 5 mi WSW 4.6 mph - - Rain Light Rain Showers
3:50 PM 48.2 °F - 44.6 °F 87% 29.86 in 6.2 mi SW 15.0 mph - N/A Rain Light Rain Showers
4:50 PM 48.2 °F - 44.6 °F 87% 29.86 in 6.2 mi SSW 6.9 mph - N/A Rain Light Rain Showers
5:50 PM 48.2 °F - 44.6 °F 87% 29.89 in 6.2 mi SW 17.3 mph - N/A Rain Light Rain Showers
6:50 PM 48.2 °F - 44.6 °F 87% 29.89 in 6.2 mi SW 12.7 mph - N/A   Mostly Cloudy
7:50 PM 48.2 °F - 44.6 °F 87% 29.92 in 6.2 mi SW 15.0 mph - N/A Rain Light Rain Showers
8:50 PM 48.2 °F - 46.4 °F 93% 29.92 in 6.2 mi WSW 11.5 mph - N/A   Mostly Cloudy
9:00 PM 53 °F - 47 °F 74%  in 9 mi West 4.6 mph - - Rain Light Rain Showers
9:50 PM 48.2 °F - 46.4 °F 93% 29.95 in 6.2 mi WSW 11.5 mph - N/A Rain Light Rain Showers
11:50 PM 46.4 °F 40.4 °F 42.8 °F 87% 29.98 in 6.2 mi West 13.8 mph - N/A   Mostly Cloudy